TimeEST,TemperatureF,Dew PointF,Humidity,Sea Level PressureIn,VisibilityMPH,Wind Direction,Wind SpeedMPH,Gust SpeedMPH,PrecipitationIn,Events,Conditions,WindDirDegrees,DateUTC
12:15 AM,23.0,14.0,68,30.24,10.0,North,5.8,-,N/A,,Clear,10,2013-02-21 05:15:00
12:35 AM,23.0,14.0,68,30.25,10.0,North,3.5,-,N/A,,Clear,360,2013-02-21 05:35:00
12:55 AM,23.0,14.0,68,30.25,10.0,NNE,3.5,-,N/A,,Clear,20,2013-02-21 05:55:00
1:15 AM,23.0,14.0,68,30.26,10.0,North,3.5,-,N/A,,Clear,10,2013-02-21 06:15:00
1:35 AM,23.0,14.0,68,30.26,10.0,North,3.5,-,N/A,,Clear,10,2013-02-21 06:35:00
1:55 AM,23.0,14.0,68,30.25,10.0,NNE,3.5,-,N/A,,Clear,30,2013-02-21 06:55:00
2:15 AM,21.2,14.0,74,30.27,10.0,North,3.5,-,N/A,,Clear,350,2013-02-21 07:15:00
2:35 AM,21.2,14.0,74,30.27,10.0,Calm,Calm,-,N/A,,Clear,0,2013-02-21 07:35:00
2:55 AM,21.2,14.0,74,30.25,10.0,NNE,4.6,-,N/A,,Clear,30,2013-02-21 07:55:00
3:15 AM,21.2,14.0,74,30.26,10.0,NE,3.5,-,N/A,,Clear,40,2013-02-21 08:15:00
3:35 AM,21.2,14.0,74,30.25,10.0,NE,4.6,-,N/A,,Clear,50,2013-02-21 08:35:00
4:15 AM,19.4,14.0,80,30.24,10.0,NE,4.6,-,N/A,,Clear,40,2013-02-21 09:15:00
4:35 AM,19.4,14.0,80,30.25,10.0,Calm,Calm,-,N/A,,Clear,0,2013-02-21 09:35:00
4:55 AM,19.4,14.0,80,30.25,10.0,Calm,Calm,-,N/A,,Clear,0,2013-02-21 09:55:00
5:15 AM,19.4,14.0,80,30.25,10.0,Calm,Calm,-,N/A,,Clear,0,2013-02-21 10:15:00
5:35 AM,19.4,14.0,80,30.26,10.0,Calm,Calm,-,N/A,,Clear,0,2013-02-21 10:35:00
5:55 AM,19.4,14.0,80,30.27,10.0,ENE,3.5,-,N/A,,Clear,60,2013-02-21 10:55:00
6:15 AM,17.6,14.0,86,30.27,10.0,NE,4.6,-,N/A,,Clear,50,2013-02-21 11:15:00
6:35 AM,19.4,14.0,80,30.26,10.0,ENE,5.8,-,N/A,,Clear,60,2013-02-21 11:35:00
7:15 AM,19.4,14.0,80,30.28,10.0,ENE,3.5,-,N/A,,Clear,60,2013-02-21 12:15:00
7:35 AM,17.6,14.0,86,30.28,10.0,ENE,4.6,-,N/A,,Clear,60,2013-02-21 12:35:00
7:55 AM,19.4,14.0,80,30.28,10.0,NE,5.8,-,N/A,,Clear,50,2013-02-21 12:55:00
8:15 AM,19.4,14.0,80,30.29,10.0,ENE,4.6,-,N/A,,Clear,70,2013-02-21 13:15:00
8:35 AM,21.2,15.8,80,30.29,10.0,East,6.9,-,N/A,,Clear,90,2013-02-21 13:35:00
8:55 AM,23.0,15.8,74,30.30,10.0,East,8.1,-,N/A,,Clear,90,2013-02-21 13:55:00
9:15 AM,23.0,15.8,74,30.29,10.0,East,8.1,-,N/A,,Clear,100,2013-02-21 14:15:00
9:35 AM,24.8,15.8,69,30.29,10.0,East,9.2,-,N/A,,Clear,80,2013-02-21 14:35:00
9:55 AM,26.6,15.8,64,30.28,10.0,ENE,10.4,-,N/A,,Clear,70,2013-02-21 14:55:00
10:15 AM,26.6,17.6,69,30.27,10.0,ENE,11.5,-,N/A,,Clear,70,2013-02-21 15:15:00
10:35 AM,28.4,15.8,59,30.26,10.0,ENE,10.4,-,N/A,,Clear,70,2013-02-21 15:35:00
10:55 AM,28.4,15.8,59,30.25,10.0,East,11.5,-,N/A,,Clear,80,2013-02-21 15:55:00
11:15 AM,30.2,15.8,55,30.24,10.0,NE,11.5,16.1,N/A,,Clear,50,2013-02-21 16:15:00
11:35 AM,32.0,15.8,51,30.23,10.0,ENE,11.5,-,N/A,,Clear,70,2013-02-21 16:35:00
11:55 AM,32.0,15.8,51,30.24,10.0,NE,9.2,-,N/A,,Clear,50,2013-02-21 16:55:00
12:15 PM,33.8,17.6,52,30.24,10.0,ENE,9.2,-,N/A,,Clear,60,2013-02-21 17:15:00
12:35 PM,35.6,17.6,48,30.22,10.0,East,6.9,-,N/A,,Clear,80,2013-02-21 17:35:00
12:55 PM,35.6,15.8,44,30.19,10.0,East,9.2,-,N/A,,Clear,80,2013-02-21 17:55:00
1:15 PM,37.4,15.8,41,30.18,10.0,ENE,10.4,-,N/A,,Clear,70,2013-02-21 18:15:00
1:35 PM,37.4,15.8,41,30.17,10.0,East,6.9,16.1,N/A,,Clear,90,2013-02-21 18:35:00
1:55 PM,39.2,15.8,39,30.18,10.0,East,8.1,-,N/A,,Clear,90,2013-02-21 18:55:00
2:15 PM,39.2,15.8,39,30.15,10.0,ENE,10.4,-,N/A,,Clear,60,2013-02-21 19:15:00
2:35 PM,39.2,15.8,39,30.15,10.0,ENE,11.5,-,N/A,,Clear,70,2013-02-21 19:35:00
2:55 PM,39.2,15.8,39,30.13,10.0,ENE,9.2,-,N/A,,Clear,60,2013-02-21 19:55:00
3:15 PM,39.2,15.8,39,30.13,10.0,East,9.2,17.3,N/A,,Clear,80,2013-02-21 20:15:00
3:35 PM,39.2,15.8,39,30.11,10.0,East,9.2,16.1,N/A,,Clear,80,2013-02-21 20:35:00
3:55 PM,39.2,15.8,39,30.10,10.0,East,12.7,18.4,N/A,,Clear,80,2013-02-21 20:55:00
4:15 PM,39.2,15.8,39,30.08,10.0,East,15.0,-,N/A,,Clear,80,2013-02-21 21:15:00
4:35 PM,39.2,15.8,39,30.08,10.0,East,11.5,-,N/A,,Clear,80,2013-02-21 21:35:00
4:55 PM,39.2,15.8,39,30.09,10.0,East,10.4,-,N/A,,Clear,100,2013-02-21 21:55:00
5:15 PM,39.2,15.8,39,30.08,10.0,East,12.7,16.1,N/A,,Clear,90,2013-02-21 22:15:00
5:35 PM,39.2,17.6,42,30.07,10.0,East,9.2,-,N/A,,Scattered Clouds,80,2013-02-21 22:35:00
5:55 PM,39.2,17.6,42,30.08,10.0,East,9.2,-,N/A,,Scattered Clouds,80,2013-02-21 22:55:00
6:15 PM,39.2,17.6,42,30.08,10.0,East,8.1,-,N/A,,Overcast,80,2013-02-21 23:15:00
6:35 PM,39.2,17.6,42,30.07,10.0,East,10.4,-,N/A,,Overcast,80,2013-02-21 23:35:00
6:55 PM,39.2,17.6,42,30.06,10.0,ENE,10.4,-,N/A,,Mostly Cloudy,60,2013-02-21 23:55:00
7:15 PM,39.2,17.6,42,30.08,10.0,NE,10.4,-,N/A,,Mostly Cloudy,50,2013-02-22 00:15:00
7:35 PM,39.2,15.8,39,30.09,10.0,ENE,8.1,-,N/A,,Overcast,60,2013-02-22 00:35:00
7:55 PM,37.4,15.8,41,30.13,10.0,NE,6.9,-,N/A,,Overcast,50,2013-02-22 00:55:00
8:15 PM,37.4,17.6,45,30.11,10.0,NE,6.9,-,N/A,,Overcast,40,2013-02-22 01:15:00
8:35 PM,35.6,19.4,52,30.11,10.0,ENE,6.9,-,N/A,,Overcast,60,2013-02-22 01:35:00
8:55 PM,35.6,21.2,56,30.10,10.0,ENE,8.1,-,N/A,,Overcast,60,2013-02-22 01:55:00
9:15 PM,33.8,23.0,65,30.10,7.0,ENE,6.9,-,N/A,,Overcast,60,2013-02-22 02:15:00
9:35 PM,33.8,26.6,75,30.09,7.0,East,9.2,-,N/A,,Overcast,80,2013-02-22 02:35:00
9:55 PM,32.0,26.6,80,30.10,5.0,ENE,5.8,-,N/A,,Overcast,70,2013-02-22 02:55:00
10:15 PM,32.0,28.4,87,30.08,5.0,East,9.2,-,N/A,,Overcast,80,2013-02-22 03:15:00
10:35 PM,32.0,28.4,87,30.05,10.0,East,10.4,-,N/A,,Overcast,90,2013-02-22 03:35:00
10:55 PM,32.0,28.4,87,30.04,10.0,East,11.5,-,N/A,,Overcast,90,2013-02-22 03:55:00
11:15 PM,32.0,28.4,87,30.05,10.0,ESE,9.2,-,N/A,,Overcast,110,2013-02-22 04:15:00
11:35 PM,32.0,28.4,87,30.10,10.0,SE,3.5,-,N/A,,Overcast,140,2013-02-22 04:35:00
11:55 PM,32.0,28.4,87,30.04,4.0,ESE,8.1,-,N/A,,Overcast,110,2013-02-22 04:55:00